Latest Coastal Weather Observations for Truscott

IDW60701

Issued at 5:55 pm WST Saturday 20 September 2014 (issued every 10 minutes, with the page automatically refreshed every 10 minutes)

About coastal observations | Map of coastal stations | Coastal observations for WA | Marine services | Other Formats
Station Details ID: 001020 Name: TRUSCOTT Lat: -14.09 Lon: 126.39 Height: 51.0 m
Data from the previous 72 hours. | See also: Recent months at Truscott
Date/Time
WST
Temp

°C
Wind Pressure Rain
since 9am
mm
Weather Cloud Vis
km
Sea
Height
m
Swell
Dir
 
Speed
knots
Gust
knots
hPa Trend Height
m
Period
s
Dir
20/05:30pm 30.0 WSW 4 - 1011.0 - 0.0 - - 10 - - - -
20/05:00pm 31.0 WNW 5 - 1011.0 - 0.0 - - 10 - - - -
20/04:30pm 32.0 NNW 5 - 1011.0 - 0.0 - - 10 - - - -
20/04:00pm 32.0 N 6 - 1010.0 - 0.0 - - 10 - - - -
20/03:30pm 33.0 N 7 - 1010.0 - 0.0 - - 10 - - - -
20/03:00pm 33.3 NW 7 - 1010.1 - 0.0 - - 10 - - - -
20/02:30pm 34.0 NNW 8 - 1010.0 - 0.0 - - 10 - - - -
20/02:00pm 33.0 NNW 7 - 1011.0 - 0.0 - - 10 - - - -
20/01:30pm 34.0 NNW 8 - 1011.0 - 0.0 - - 10 - - - -
20/01:00pm 34.0 NW 8 - 1011.0 - 0.0 - - 10 - - - -
20/12:30pm 34.0 NNW 6 - 1012.0 - 0.0 - - 10 - - - -
20/12:00pm 34.4 NW 7 - 1012.3 - 0.0 - - 10 - - - -
20/11:30am 34.0 NW 7 6 1013.0 - 0.0 - - 10 - - - -
20/11:00am 33.0 WNW 6 - 1014.0 - 0.0 - - 10 - - - -
20/10:30am 33.0 WNW 7 - 1014.0 - 0.0 - - 10 - - - -
20/10:00am 32.0 W 6 - 1014.0 - 0.0 - - 10 - - - -
20/09:30am 31.0 W 5 - 1015.0 - 0.0 - - 10 - - - -
20/09:00am 30.5 WNW 4 - 1015.3 - 0.0 - - 10 - - - -
20/08:30am 29.0 W 4 - 1015.0 - 0.0 - - 10 - - - -
20/08:00am 28.0 W 3 - 1015.0 - 0.0 - - 10 - - - -
20/07:30am 28.0 NE 3 - 1015.0 - 0.0 - - 10 - - - -
20/07:00am 27.0 E 1 - 1015.0 - 0.0 - - 10 - - - -
20/06:30am 23.0 CALM 0 - 1015.0 - 0.0 - - 10 - - - -
20/06:00am 20.8 E 2 - 1013.9 - 0.0 - - 10 - - - -
20/05:30am 20.0 CALM 0 - 1014.0 - 0.0 - - 10 - - - -
20/05:00am 21.0 NNE 5 - 1013.0 - 0.0 - - 10 - - - -
20/04:30am 20.0 CALM 0 - 1013.0 - 0.0 - - 10 - - - -
20/04:00am 21.0 CALM 0 - 1013.0 - 0.0 - - 10 - - - -
20/03:30am 24.0 SW 5 - 1012.0 - 0.0 - - 10 - - - -
20/03:00am 24.7 SW 6 - 1011.9 - 0.0 - - 10 - - - -
20/02:30am 25.0 SW 6 - 1012.0 - 0.0 - - 10 - - - -
20/02:00am 25.0 SSW 5 - 1012.0 - 0.0 - - 10 - - - -
20/01:30am 24.0 SSW 7 - 1012.0 - 0.0 - - 10 - - - -
20/01:00am 24.0 SW 5 - 1013.0 - 0.0 - - 10 - - - -
20/12:30am 25.0 SW 4 5 1013.0 - 0.0 - - 10 - - - -
20/12:00am 24.7 SW 5 6 1012.8 - 0.0 - - 10 - - - -
 
Date/Time
WST
Temp

°C
Wind Pressure Rain
since 9am
mm
Weather Cloud Vis
km
Sea
Height
m
Swell
Dir
 
Speed
knots
Gust
knots
hPa Trend Height
m
Period
s
Dir
19/11:30pm 26.0 WSW 5 - 1013.0 - 0.0 - - 10 - - - -
19/11:00pm 26.0 SW 6 - 1013.0 - 0.0 - - 10 - - - -
19/10:30pm 26.0 WSW 6 - 1014.0 - 0.0 - - 10 - - - -
19/10:00pm 26.0 SW 6 - 1014.0 - 0.0 - - 10 - - - -
19/09:30pm 26.0 SW 7 - 1014.0 - 0.0 - - 10 - - - -
19/09:00pm 26.3 WSW 7 - 1014.1 - 0.0 - - 10 - - - -
19/08:30pm 26.0 SW 6 - 1014.0 - 0.0 - - 10 - - - -
19/08:00pm 26.0 WSW 5 - 1014.0 - 0.0 - - 10 - - - -
19/07:30pm 27.0 SW 5 - 1014.0 - 0.0 - - 10 - - - -
19/07:00pm 27.0 SW 5 - 1013.0 - 0.0 - - 10 - - - -
19/06:30pm 28.0 SW 4 - 1013.0 - 0.0 - - 10 - - - -
19/06:00pm 28.3 WSW 4 - 1012.3 - 0.0 - - 10 - - - -
19/05:30pm 29.0 W 4 - 1012.0 - 0.0 - - 10 - - - -
19/05:00pm 30.0 WNW 4 - 1012.0 - 0.0 - - 10 - - - -
19/04:30pm 31.0 NW 5 - 1012.0 - 0.0 - - 10 - - - -
19/04:00pm 31.0 NW 6 - 1011.0 - 0.0 - - 10 - - - -
19/03:30pm 31.0 W 9 - 1011.0 - 0.0 - - 10 - - - -
19/03:00pm 32.8 NNW 8 - 1011.4 - 0.0 - - 10 - - - -
19/02:30pm 32.0 N 8 - 1012.0 - 0.0 - - 10 - - - -
19/02:00pm 33.0 NNW 6 - 1012.0 - 0.0 - - 10 - - - -
19/01:30pm 33.0 NW 6 - 1012.0 - 0.0 - - 10 - - - -
19/01:00pm 33.0 WNW 9 - 1012.0 - 0.0 - - 10 - - - -
19/12:30pm 33.0 WNW 8 - 1013.0 - 0.0 - - 10 - - - -
19/12:00pm 32.3 NW 7 - 1013.6 - 0.0 - - 10 - - - -
19/11:30am 32.0 WNW 7 - 1014.0 - 0.0 - - 10 - - - -
19/11:00am 32.0 NW 8 - 1015.0 - 0.0 - - 10 - - - -
19/10:30am 31.0 WNW 7 - 1015.0 - 0.0 - - 10 - - - -
19/10:00am 31.0 NNW 7 - 1016.0 - 0.0 - - 10 - - - -
19/09:30am 29.0 N 7 - 1016.0 - 0.0 - - 10 - - - -
19/09:00am 30.1 NNW 6 - 1016.5 - 0.0 - - 10 - - - -
19/08:30am 29.0 WNW 5 - 1017.0 - 0.0 - - 10 - - - -
19/08:00am 28.0 WNW 6 - 1017.0 - 0.0 - - 10 - - - -
19/07:30am 27.0 WNW 6 - 1016.0 - 0.0 - - 10 - - - -
19/07:00am 27.0 NNW 5 - 1016.0 - 0.0 - - 10 - - - -
19/06:30am 25.0 NNW 1 - 1016.0 - 0.0 - - 10 - - - -
19/06:00am 23.5 N 3 - 1015.1 - 0.0 - - 10 - - - -
19/05:30am 22.0 NNE 1 - 1015.0 - 0.0 - - 10 - - - -
19/05:00am 22.0 CALM 0 - 1014.0 - 0.0 - - 10 - - - -
19/04:30am 23.0 NNE 2 - 1014.0 - 0.0 - - 10 - - - -
19/04:00am 21.0 SW 2 - 1013.0 - 0.0 - - 10 - - - -
19/03:30am 23.0 SW 2 - 1013.0 - 0.0 - - 10 - - - -
19/03:00am 24.4 SW 4 - 1012.7 - 0.0 - Cloudy 10 - - - -
19/02:30am 24.0 SW 6 - 1012.0 - 0.0 - Partly cloudy 10 - - - -
19/02:00am 24.0 SW 6 - 1013.0 - 0.0 - Cloudy 10 - - - -
19/01:30am 24.0 SW 6 - 1013.0 - 0.0 - Partly cloudy 10 - - - -
19/01:00am 24.0 SW 6 - 1013.0 - 0.0 - - 10 - - - -
19/12:30am 24.0 SW 6 - 1013.0 - 0.0 - - 10 - - - -
19/12:00am 24.4 SW 6 - 1013.5 - 0.0 - - 10 - - - -
 
Date/Time
WST
Temp

°C
Wind Pressure Rain
since 9am
mm
Weather Cloud Vis
km
Sea
Height
m
Swell
Dir
 
Speed
knots
Gust
knots
hPa Trend Height
m
Period
s
Dir
18/11:30pm 24.0 SW 4 - 1014.0 - 0.0 - - 10 - - - -
18/11:00pm 25.0 SW 4 - 1014.0 - 0.0 - - 10 - - - -
18/10:30pm 25.0 SW 5 - 1014.0 - 0.0 - - 10 - - - -
18/10:00pm 25.0 SSW 4 - 1015.0 - 0.0 - - 10 - - - -
18/09:30pm 25.0 WSW 6 - 1015.0 - 0.0 - - 10 - - - -
18/09:00pm 25.9 WSW 4 - 1014.9 - 0.0 - - 10 - - - -
18/08:30pm 26.0 W 1 - 1015.0 - 0.0 - Partly cloudy 10 - - - -
18/08:00pm 26.0 WNW 2 - 1015.0 - 0.0 - Partly cloudy 10 - - - -
18/07:30pm 25.0 W 3 - 1015.0 - 0.0 - Partly cloudy 10 - - - -
18/07:00pm 26.0 NW 3 - 1014.0 - 0.0 - - 10 - - - -
18/06:30pm 26.0 W 3 - 1014.0 - 0.0 - - 10 - - - -
18/06:00pm 26.2 NW 4 - 1013.1 - 0.0 - - 10 - - - -
18/05:30pm 27.0 NNW 4 - 1013.0 - 0.0 - - 10 - - - -
18/05:00pm 28.0 NNW 5 - 1012.0 - 0.0 - - 10 - - - -
18/04:30pm 28.0 NNW 7 - 1012.0 - 0.0 - - 10 - - - -
18/04:00pm 29.0 NNW 8 - 1012.0 - 0.0 - - 9 - - - -
18/03:30pm 30.0 NNW 8 - 1012.0 - 0.0 - - 10 - - - -
18/03:00pm 30.0 NNW 8 - 1011.8 - 0.0 - - 10 - - - -
18/02:30pm 30.0 NNW 10 - 1012.0 - 0.0 - - 10 - - - -
18/02:00pm 31.0 N 9 - 1012.0 - 0.0 - - 10 - - - -
18/01:30pm 31.0 N 9 - 1013.0 - 0.0 - - 10 - - - -
18/01:00pm 31.0 N 9 - 1013.0 - 0.0 - - 10 - - - -
18/12:30pm 31.0 NNW 9 - 1014.0 - 0.0 - - 10 - - - -
18/12:00pm 31.2 NNW 9 - 1014.0 - 0.0 - - 10 - - - -
18/11:30am 31.0 NNW 10 - 1015.0 - 0.0 - - 10 - - - -
18/11:00am 31.0 NNW 8 - 1015.0 - 0.0 - - 10 - - - -
18/10:30am 31.0 NNW 7 - 1016.0 - 0.0 - - 10 - - - -
18/10:00am 31.0 N 6 - 1016.0 - 0.0 - - 10 - - - -
18/09:30am 31.0 N 6 - 1017.0 - 0.0 - - 10 - - - -
18/09:00am 30.5 ENE 3 - 1016.9 - 0.0 - - 10 - - - -
18/08:30am 30.0 NE 4 - 1017.0 - 0.0 - - 10 - - - -
18/08:00am 28.0 NW 3 - 1017.0 - 0.0 - - 10 - - - -
18/07:30am 27.0 SW 4 - 1016.0 - 0.0 - - 10 - - - -
18/07:00am 26.0 SW 5 - 1016.0 - 0.0 - - 10 - - - -
18/06:30am 24.0 SSW 3 - 1015.0 - 0.0 - - 10 - - - -
18/06:00am 21.7 CALM 0 - 1015.1 - 0.0 - - 10 - - - -
18/05:30am 22.0 SSW 4 - 1014.0 - 0.0 - - 10 - - - -
18/05:00am 22.0 SSW 4 - 1014.0 - 0.0 - - 10 - - - -
18/04:30am 23.0 SSW 4 - 1014.0 - 0.0 - - 10 - - - -
18/04:00am 23.0 SW 4 - 1013.0 - 0.0 - - 10 - - - -
18/03:30am 23.0 SSW 4 - 1013.0 - 0.0 - - 10 - - - -
18/03:00am 22.6 SW 3 - 1013.2 - 0.0 - - 10 - - - -
18/02:30am 23.0 SW 4 - 1013.0 - 0.0 - - 10 - - - -
18/02:00am 24.0 SW 4 - 1013.0 - 0.0 - - 10 - - - -
18/01:30am 24.0 SW 5 - 1013.0 - 0.0 - - 10 - - - -
18/01:00am 24.0 SW 4 - 1013.0 - 0.0 - - 10 - - - -
18/12:30am 24.0 SW 5 - 1013.0 - 0.0 - - 10 - - - -
18/12:00am 24.4 SW 5 - 1013.7 - 0.0 - - 10 - - - -
 
Date/Time
WST
Temp

°C
Wind Pressure Rain
since 9am
mm
Weather Cloud Vis
km
Sea
Height
m
Swell
Dir
 
Speed
knots
Gust
knots
hPa Trend Height
m
Period
s
Dir
17/11:30pm 24.0 SW 5 - 1014.0 - 0.0 - - 10 - - - -
17/11:00pm 24.0 WSW 4 - 1014.0 - 0.0 - - 10 - - - -
17/10:30pm 25.0 WSW 6 - 1014.0 - 0.0 - - 10 - - - -
17/10:00pm 25.0 SW 6 - 1015.0 - 0.0 - - 10 - - - -
17/09:30pm 25.0 SW 5 - 1015.0 - 0.0 - - 10 - - - -
17/09:00pm 25.1 SW 3 - 1014.4 - 0.0 - - 10 - - - -
17/08:30pm 24.0 WSW 3 - 1014.0 - 0.0 - - 10 - - - -
17/08:00pm 25.0 CALM 0 - 1014.0 - 0.0 - - 10 - - - -
17/07:30pm 25.0 WNW 4 - 1014.0 - 0.0 - - 10 - - - -
17/07:00pm 25.0 NW 4 - 1014.0 - 0.0 - - 10 - - - -
17/06:30pm 25.0 NW 3 - 1013.0 - 0.0 - - 10 - - - -
17/06:00pm 25.8 NW 3 - 1012.8 - 0.0 - - 10 - - - -

Other Formats:

Comma delimited format used in spreadsheet applications
http://www.bom.gov.au/fwo/IDW60701/IDW60701.95101.axf

JavaScript Object Notation format (JSON) in row-major order
http://www.bom.gov.au/fwo/IDW60701/IDW60701.95101.json